Regional Weather Roundup
Issued by NWS Little Rock, AR

Home | Current Version | Previous Version | Graphics & Text | Print | Product List | Glossary On
Versions: 1 2 3 4 5 6 7 8 9 10 11 12 13 14 15 16 17 18 19 20 21 22 23 24 25 26 27 28 29 30 31 32 33 34 35 36 37 38 39 40 41 42 43 44 45 46 47 48 49 50
000
ASUS44 KLZK 220505
RWRLZK

WEATHER ROUNDUP FOR ARKANSAS
NATIONAL WEATHER SERVICE LITTLE ROCK AR
1100 PM CST TUE NOV 21 2017

NOTE: "FAIR" INDICATES FEW OR NO CLOUDS BELOW 12,000 FEET WITH NO
SIGNIFICANT WEATHER AND/OR OBSTRUCTIONS TO VISIBILITY.

ARZ001-003-010-029-220600-
NORTHWEST ARKANSAS

CITY           SKY/WX    TMP DP  RH WIND       PRES   REMARKS
FAYETTEVILLE   CLEAR     39  20  46 N8        30.27R
FORT SMITH     CLEAR     50  29  44 N10       30.25R
HARRISON       CLEAR     40  21  46 N7        30.25R
BENTONVILLE    CLEAR     38  17  42 N13       30.31R
ROGERS         CLEAR     37  17  44 N9        30.30R
SILOAM SPGS    CLEAR     38  16  40 N13       30.30R
HIGHFILL       CLEAR     38  17  42 N17       30.29R
$$

ARZ004-005-016-220600-
NORTH CENTRAL ARKANSAS

CITY           SKY/WX    TMP DP  RH WIND       PRES   REMARKS
BATESVILLE     CLEAR     48  28  46 VRB7      30.21R
FLIPPIN        CLEAR     45  23  42 N10       30.25R
MTN HOME       CLEAR     42  22  44 VRB5      30.23R
$$

ARZ040-041-220600-
WEST CENTRAL ARKANSAS

CITY           SKY/WX    TMP DP  RH WIND       PRES   REMARKS
MENA           CLEAR     52  37  58 NE3       30.20R
MOUNT IDA      CLEAR     52  39  61 CALM      30.16R
$$

ARZ009-017-025-026-028-220600-
NORTHEAST ARKANSAS

CITY           SKY/WX    TMP DP  RH WIND       PRES   REMARKS
CORNING        FAIR      45  28  53 N14       30.21R
JONESBORO      CLEAR     49  34  56 N10       30.18R
NEWPORT        CLEAR     40  34  79 N9        30.20R
WALNUT RIDGE     N/A     41  33  73 N10       30.21R
BLYTHEVILLE    CLEAR     45  30  55 N16       30.18R
$$

ARZ022-023-033-042-044-220600-
CENTRAL ARKANSAS

CITY           SKY/WX    TMP DP  RH WIND       PRES   REMARKS
LITTLE ROCK    CLEAR     51  37  58 N10       30.18R
N LITTLE ROCK    N/A     51  37  59 N7        30.20R
SEARCY         CLEAR     51  36  56 N14       30.19R
HOT SPRINGS    CLEAR     55  37  50 NE3       30.17R
RUSSELLVILLE   CLEAR     50  29  44 N13       30.20R
CLINTON        FAIR      50  30  46 VRB3      30.22R
$$

ARZ036-220600-
EAST ARKANSAS

CITY           SKY/WX    TMP DP  RH WIND       PRES   REMARKS
WEST MEMPHIS   CLEAR     48  43  82 N8        30.14R
$$

ARZ050-053-066-070-073-220600-
SOUTHWEST ARKANSAS

CITY           SKY/WX    TMP DP  RH WIND       PRES   REMARKS
ARKADELPHIA    FAIR      50  43  77 N6        30.17R
CAMDEN         PTCLDY    50  45  81 NW6       30.15R
TEXARKANA      CLEAR     53  48  83 N5        30.16R
EL DORADO      MOCLDY    55  52  89 NW5       30.14R
DE QUEEN       CLEAR     52  40  63 VRB3      30.15R
$$

ARZ056-057-069-220600-
SOUTHEAST ARKANSAS

CITY           SKY/WX    TMP DP  RH WIND       PRES   REMARKS
PINE BLUFF     CLEAR     51  41  68 N14       30.16R
STUTTGART      CLEAR     49  40  71 N14       30.16R
MONTICELLO     CLEAR     48  44  86 NW3       30.13R

$$





USA.gov is the U.S. government's official web portal to all federal, state and local government web resources and services.